Location: Bouchavesnes-Bergen
(49.9859°N, 2.9203°E)
Time: 03:37:44
(UTC+00:00)

ARIANE 5 R/B - Pass Details

Date: 09 March 2021
Orbit: 749 x 794 km, 98.7° (Epoch: 16 April)

Event Time Altitude Azimuth Distance (km) Brightness Sun altitude
Rises 03:16:46 0° 13° (NNE) 3,225 6.3 -28.4°
Reaches altitude 10° 03:19:04 10° 12° (NNE) 2,300 5.4 -28.1°
Enters shadow 03:23:22 62° 347° (NNW) 858 2.7 -27.5°
